YD2CLX-16 Weather Reports


Display with metric or nautical units.
time (UTC)temp
F
wind
direction
speed
MPH
gust
MPH
rain 1hr
in
rain 24hr
in
rain mn
in
humidity
%
barometer
mb
20260505204513 83 163 5.0 6.0 0.00 0.00 0.00 96 1009.0
20260505203013 83 163 5.0 6.0 0.00 0.00 0.00 96 1009.0
20260505201513 83 162 5.0 7.0 0.00 0.00 0.00 97 1009.0
20260505200013 83 162 5.0 7.0 0.00 0.00 0.00 96 1009.0
20260505194513 83 162 5.0 7.0 0.00 0.00 0.00 96 1009.0
20260505193013 83 162 5.0 7.0 0.00 0.00 0.00 95 1009.0
20260505191513 83 165 5.0 7.0 0.00 0.00 0.00 96 1009.0
20260505190013 83 165 5.0 7.0 0.00 0.00 0.00 93 1009.0
20260505184514 83 165 5.0 7.0 0.00 0.00 0.00 93 1009.0
20260505183003 79 200 7.0 0.0 0.00 0.00 0.00 89 1009.0
20260505181503 79 200 7.0 0.0 0.00 0.00 0.00 89 1010.0
20260505180003 79 200 7.0 0.0 0.00 0.00 0.00 89 1010.0
20260505174503 79 200 7.0 0.0 0.00 0.00 0.00 89 1010.0
20260505173003 79 200 7.0 0.0 0.00 0.00 0.00 89 1010.0
20260505171503 79 200 7.0 0.0 0.00 0.00 0.00 89 1010.0
20260505170003 79 200 7.0 0.0 0.00 0.00 0.00 89 1010.0
20260505164503 79 200 7.0 0.0 0.00 0.00 0.00 89 1010.0
20260505163003 79 200 7.0 0.0 0.00 0.00 0.00 89 1011.0
20260505161503 79 200 7.0 0.0 0.00 0.00 0.00 89 1011.0
20260505153004 79 200 7.0 0.0 0.00 0.00 0.00 89 1011.0
20260505151504 79 200 7.0 0.0 0.00 0.00 0.00 89 1011.0
20260505124503 79 200 7.0 0.0 0.00 0.00 0.00 89 1010.0
20260505123004 78 200 7.0 0.0 0.00 0.00 0.00 89 1010.0
20260505121503 77 200 7.0 0.0 0.00 0.00 0.00 89 1009.0
20260505120004 77 200 7.0 0.0 0.00 0.00 0.00 89 1009.0
20260505114503 77 200 7.0 0.0 0.00 0.00 0.00 89 1009.0
20260505113003 82 110 9.0 0.0 0.00 0.00 0.00 89 1009.0
20260505111503 82 110 9.0 0.0 0.00 0.00 0.00 89 1008.0
20260505101503 86 300 9.0 0.0 0.00 0.00 0.00 79 1008.0
20260505100003 86 320 8.0 0.0 0.00 0.00 0.00 74 1008.0
20260505094503 86 320 8.0 0.0 0.00 0.00 0.00 74 1008.0
20260505093003 86 330 8.0 0.0 0.00 0.00 0.00 74 1008.0
20260505091503 89 360 8.0 0.0 0.00 0.00 0.00 66 1007.0
20260505090003 89 360 8.0 0.0 0.00 0.00 0.00 66 1007.0
20260505084503 88 360 8.0 0.0 0.00 0.00 0.00 72 1007.0
20260505083003 90 50 9.0 0.0 0.00 0.00 0.00 69 1007.0
20260505081503 90 50 9.0 0.0 0.00 0.00 0.00 68 1007.0
20260505080003 90 120 8.0 0.0 0.00 0.00 0.00 68 1007.0
20260505074503 90 120 8.0 0.0 0.00 0.00 0.00 68 1007.0
20260505073004 90 120 8.0 0.0 0.00 0.00 0.00 68 1007.0
20260505071503 90 120 8.0 0.0 0.00 0.00 0.00 68 1008.0
20260505070003 90 120 8.0 0.0 0.00 0.00 0.00 68 1008.0
20260505064503 90 120 8.0 0.0 0.00 0.00 0.00 69 1008.0
20260505063003 90 120 8.0 0.0 0.00 0.00 0.00 70 1008.0
20260505061503 90 120 8.0 0.0 0.00 0.00 0.00 70 1008.0
20260505060003 90 120 8.0 0.0 0.00 0.00 0.00 70 1008.0
20260505054503 90 120 8.0 0.0 0.00 0.00 0.00 70 1008.0
20260505053003 90 100 7.0 0.0 0.00 0.00 0.00 71 1008.0
20260505051503 90 100 7.0 0.0 0.00 0.00 0.00 71 1009.0
20260505041505 90 71 6.0 6.0 0.00 0.00 0.00 74 1010.0
20260505040008 89 71 6.0 6.0 0.00 0.00 0.00 71 1010.0
20260505034505 89 71 6.0 6.0 0.00 0.00 0.00 73 1010.0
20260505033006 89 71 6.0 6.0 0.00 0.00 0.00 72 1010.0
20260505031506 89 79 5.0 6.0 0.00 0.00 0.00 79 1011.0
20260505030010 89 79 5.0 6.0 0.00 0.00 0.00 75 1011.0
20260505024505 88 79 5.0 6.0 0.00 0.00 0.00 78 1011.0
20260505023005 88 79 5.0 6.0 0.00 0.00 0.00 76 1011.0
20260505021505 87 93 4.0 6.0 0.00 0.00 0.00 83 1011.0
20260505020009 87 93 4.0 6.0 0.00 0.00 0.00 80 1011.0
20260505014506 87 93 4.0 6.0 0.00 0.00 0.00 83 1011.0
20260505013006 87 93 4.0 6.0 0.00 0.00 0.00 81 1011.0
20260505011506 86 114 4.0 6.0 0.00 0.00 0.00 88 1011.0
20260505010007 85 114 4.0 6.0 0.00 0.00 0.00 85 1011.0
20260505004506 84 114 4.0 6.0 0.00 0.00 0.00 88 1011.0
20260505003006 84 114 4.0 6.0 0.00 0.00 0.00 87 1011.0
20260505001505 83 135 4.0 6.0 0.00 0.00 0.00 91 1010.0
20260505000006 83 135 4.0 6.0 0.00 0.00 0.00 91 1010.0
20260504234506 83 134 3.0 5.0 0.00 0.00 0.00 92 1010.0
20260504233006 83 134 3.0 5.0 0.00 0.00 0.00 92 1010.0
20260504231505 83 155 4.0 5.0 0.00 0.00 0.00 93 1009.0
20260504230008 82 155 4.0 5.0 0.00 0.00 0.00 93 1010.0
20260504224505 82 155 4.0 5.0 0.00 0.00 0.00 93 1009.0
20260504223006 82 155 4.0 5.0 0.00 0.00 0.00 93 1009.0
20260504221505 82 165 4.0 5.0 0.00 0.00 0.00 93 1009.0
20260504220005 82 165 4.0 5.0 0.00 0.00 0.00 93 1009.0
20260504214505 82 165 4.0 5.0 0.00 0.00 0.00 93 1009.0
20260504213005 82 165 4.0 5.0 0.00 0.00 0.00 93 1009.0
20260504211505 83 158 4.0 5.0 0.00 0.00 0.00 93 1009.0
20260504210006 82 158 4.0 5.0 0.00 0.00 0.00 93 1009.0